Zurück zum Katalog

STARLINK-32207

AktivKommunikationVLEO
NORAD 60259·PAYLOAD·🇺🇸 United States

Gestartet Jul 27, 2024 von Cape Canaveral Space Force Station

Loading…

Nächste Überflüge (nächste 24 Stunden)

TLE

AktuellSource: CelesTrak SupGP

Epoche: Sep 14, 2026, 20:44 UTC

1 60259C 24131E   26257.86437500  .00056535  00000+0  16706-2 0  2570
2 60259  53.1569 252.2654 0001192  96.6959 241.7943 15.34358533    17

Verfolge STARLINK-32207 in Echtzeit mit AllMySat

Download on the App Store